Hutchinson, KS

3:33 PM CST on February 22, 2017 (GMT -0600)
Hutchinson Municipal

Weather History for KHUT - September, 2012

Change the Weather History Date:

Sunday, September 9, 2012

  Actual Average Record
Temperature  
Mean Temperature 68 °F -  
Max Temperature 82 °F 84 °F 99 °F (2014)
Min Temperature 55 °F 57 °F 45 °F (1999)
Cooling Degree Days 3    
Growing Degree Days 18 (Base 50)    
Moisture  
Dew Point 45 °F    
Average Humidity 52    
Maximum Humidity 80    
Minimum Humidity 22    
Precipitation  
Precipitation 0.00 in - - ()
Sea Level Pressure  
Sea Level Pressure 30.12 in    
Wind  
Wind Speed 5 mph (NE)    
Max Wind Speed 10 mph    
Max Gust Speed 17 mph    
Visibility 10 miles    
Events      
Averages and records for this station are not official NWS values.
T = Trace of Precipitation, MM = Missing Value Source: NWS Daily Summary

Daily Weather History Graph

Daily Weather History Graph

Search for Another Location

Airport or City:

Trip Planner

Search our weather history database for the weather conditions in past years. The results will help you decide how hot, cold, wet, or windy it might be!

Date:

Astronomy

Sep. 09, 2012 Rise Set
Actual Time 7:08 AM CDT 7:47 PM CDT
Civil Twilight 6:41 AM CDT 8:14 PM CDT
Nautical Twilight 6:10 AM CDT 8:45 PM CDT
Astronomical Twilight 5:38 AM CDT 9:17 PM CDT
Moon 12:43 AM CDT (9/9) 3:30 PM CDT (9/9)
Length of Visible Light 13h 32m
Length of Day
12h 39m
Last Quarter, 39% of the Moon is Illuminated
Sep 9
Last Quarter
Sep 15
New
Sep 22
First Quarter
Sep 29
Full
Oct 8
Last Quarter

Hourly Weather History & Observations

Time (CDT) Temp. Dew Point Humidity Pressure Visibility Wind Dir Wind Speed Gust Speed Precip Events Conditions
12:52 AM 55.0 °F 48.9 °F 80% 30.06 in 10.0 mi Calm Calm - N/A   Clear
1:52 AM 55.0 °F 48.0 °F 77% 30.06 in 10.0 mi WNW 3.5 mph - N/A   Clear
2:52 AM 55.9 °F 48.9 °F 77% 30.06 in 10.0 mi NW 4.6 mph - N/A   Clear
3:52 AM 57.0 °F 48.9 °F 74% 30.06 in 10.0 mi WNW 3.5 mph - N/A   Clear
4:52 AM 57.0 °F 48.9 °F 74% 30.08 in 10.0 mi NNW 5.8 mph - N/A   Clear
5:52 AM 60.1 °F 46.9 °F 62% 30.10 in 10.0 mi North 8.1 mph - N/A   Clear
6:52 AM 57.0 °F 46.9 °F 69% 30.13 in 10.0 mi NNE 5.8 mph - N/A   Clear
7:52 AM 57.0 °F 46.9 °F 69% 30.17 in 10.0 mi NNE 4.6 mph - N/A   Clear
8:52 AM 61.0 °F 48.0 °F 62% 30.19 in 10.0 mi NNE 6.9 mph - N/A   Clear
9:52 AM 66.0 °F 46.9 °F 50% 30.20 in 10.0 mi NE 9.2 mph - N/A   Clear
10:52 AM 70.0 °F 45.0 °F 41% 30.20 in 10.0 mi NE 9.2 mph 17.3 mph N/A   Clear
11:52 AM 75.0 °F 45.0 °F 34% 30.19 in 10.0 mi NNE 8.1 mph - N/A   Clear
12:52 PM 75.9 °F 45.0 °F 33% 30.18 in 10.0 mi ENE 9.2 mph 16.1 mph N/A   Clear
1:52 PM 78.1 °F 44.1 °F 30% 30.17 in 10.0 mi NNE 6.9 mph - N/A   Clear
2:52 PM 80.1 °F 43.0 °F 27% 30.14 in 10.0 mi NNE 10.4 mph 16.1 mph N/A   Clear
3:52 PM 81.0 °F 39.9 °F 23% 30.12 in 10.0 mi North 10.4 mph - N/A   Clear
4:52 PM 81.0 °F 39.0 °F 22% 30.11 in 10.0 mi NE 8.1 mph - N/A   Clear
5:52 PM 80.1 °F 39.0 °F 23% 30.09 in 10.0 mi NE 4.6 mph - N/A   Clear
6:52 PM 77.0 °F 39.9 °F 26% 30.09 in 10.0 mi NE 4.6 mph - N/A   Clear
7:52 PM 66.9 °F 46.0 °F 47% 30.10 in 10.0 mi ENE 3.5 mph - N/A   Clear
8:52 PM 60.1 °F 46.9 °F 62% 30.11 in 10.0 mi East 5.8 mph - N/A   Clear
9:52 PM 62.1 °F 45.0 °F 53% 30.12 in 10.0 mi East 4.6 mph - N/A   Clear
10:52 PM 59.0 °F 45.0 °F 60% 30.12 in 10.0 mi East 3.5 mph - N/A   Clear
11:52 PM 55.9 °F 45.0 °F 67% 30.11 in 10.0 mi ESE 5.8 mph - N/A   Clear